This demonstration page uses our WeatherBlox Daily Observations layout. Learn more.

Left ArrowRight Arrow

41.86663, -103.66717

Hourly Observations for February 4, 2015

Temp ( °F °C ) Dew Point ( °F °C ) Humidity (%) Winds ( mph kmh ) Pressure ( in mb ) Visibility ( mi km ) Precip ( " mm )
12:18 am 00:18 Cloudy with Light Snow 34 1 34 1 100 100 NE 12 19 30.06 1018 1.25 2.011675 N/A
12:43 am 00:43 Cloudy with Light Snow 33 0.6 33 0.6 100 100 NE 17 28 30.06 1018 1 1.60934 0.09 2.286
12:51 am 00:51 Cloudy with Snow 32 undefined 32 undefined 100 100 NE 20 31 30.06 1018 0.5 0.80467 0.1 2.54
12:53 am 00:53 Cloudy with Snow 32 undefined 32 undefined 100 100 NE 18 30 29.95 1014 0.5 0.80467 0.1 2.54
1:10 am 01:10 Cloudy with Snow 30 -1 30 -1 100 100 NE 23 37 30.09 1019 0.5 0.80467 N/A
1:35 am 01:35 Mostly Cloudy with Light Snow 28 -2.2 28 -2.2 100 100 NE 22 35 30.15 1021 1 1.60934 0.03 0.762
1:53 am 01:53 Windy with Snow Likely 27 -2.8 27 -2.8 100 100 NE 20 31 30.03 1017 1.25 2.011675 0.03 0.762
2:15 am 02:15 Mostly Cloudy with Snow 27 -2.8 25 -3.9 92 92 NE 22 35 30.24 1024 0.5 0.80467 0.01 0.254
2:50 am 02:50 Mostly Cloudy with Light Snow 25 -4 25 -4 100 100 NE 17 28 30.27 1025 0.75 1.207005 N/A
2:53 am 02:53 Mostly Cloudy with Light Snow 25 -3.9 23 -5 92 92 NNE 17 28 30.11 1020 1 1.60934 0.04 1.016
3:12 am 03:12 Windy with Snow Likely 25 -4 21 -6 86 86 NNE 20 31 30.27 1025 2 3.21868 N/A
3:42 am 03:42 Windy with Snow Likely 23 -5 19 -7 86 86 NNE 20 31 30.33 1027 3 4.82802 N/A
3:53 am 03:53 Cloudy with Light Snow 22 -5.6 19 -7.2 89 89 NE 14 22 30.17 1022 3 4.82802 0.02 0.508
4:00 am 04:00 Cloudy with Light Snow 21 -6 19 -7 93 93 NE 15 24 30.36 1028 1.75 2.816345 N/A
4:23 am 04:23 Cloudy with Light Snow 20 -6.7 17 -8.3 89 89 N 8 13 30.36 1028 2.5 4.02335 0.01 0.254
4:34 am 04:34 Cloudy with Light Snow 19 -7 16 -9 86 86 N 9 15 30.39 1029 1.75 2.816345 N/A
4:53 am 04:53 Mostly Cloudy with Light Snow 20 -6.7 16 -8.9 85 85 NNE 9 15 30.25 1024 1 1.60934 0.01 0.254
5:53 am 05:53 Cloudy with Light Snow 18 -7.8 14 -10 84 84 NNE 8 13 30.31 1026 1.5 2.41401 0.02 0.508
6:13 am 06:13 Mostly Cloudy with Light Snow 18 -7.8 14 -10 84 84 NNE 8 13 30.48 1032 0.75 1.207005 0.01 0.254
6:25 am 06:25 Cloudy with Light Snow 18 -7.8 15 -9.4 88 88 N 6 9 30.5 1033 1.25 2.011675 0.01 0.254
6:39 am 06:39 Cloudy with Light Snow 17 -8.3 14 -10 88 88 N 8 13 30.5 1033 1.5 2.41401 0.02 0.508
6:53 am 06:53 Cloudy with Light Snow 17 -8.3 13 -10.6 84 84 N 8 13 30.37 1028 1.5 2.41401 0.02 0.508
7:19 am 07:19 Cloudy with Light Snow 16 -8.9 12 -11.1 84 84 N 10 17 30.56 1035 2 3.21868 N/A
7:34 am 07:34 Cloudy with Light Snow 16 -9 12 -11 86 86 NNE 7 11 30.56 1035 1.5 2.41401 N/A
7:50 am 07:50 Cloudy with Light Snow 16 -9 12 -11 86 86 NNE 8 13 30.56 1035 1.5 2.41401 N/A
7:53 am 07:53 Cloudy with Light Snow 16 -8.9 12 -11.1 84 84 NNE 7 11 30.4 1030 1.75 2.816345 0.01 0.254
8:00 am 08:00 Cloudy with Light Snow 16 -9 12 -11 86 86 NNE 7 11 30.56 1035 2 3.21868 N/A
8:10 am 08:10 Cloudy with Light Snow 16 -9 12 -11 86 86 NNE 6 9 30.56 1035 1.5 2.41401 N/A
8:25 am 08:25 Cloudy with Light Snow 16 -8.9 12 -11.1 84 84 NNE 6 9 30.59 1036 1 1.60934 N/A
8:47 am 08:47 Cloudy with Light Snow 16 -9 12 -11 86 86 NE 3 6 30.59 1036 2 3.21868 N/A
8:53 am 08:53 Cloudy with Light Snow 17 -8.3 13 -10.6 84 84 N N/A 30.41 1030 2.5 4.02335 N/A
9:05 am 09:05 Cloudy with Light Snow 16 -8.9 12 -11.1 84 84 E 5 7 30.59 1036 3 4.82802 N/A
9:35 am 09:35 Cloudy with Mist and Fog 16 -8.9 13 -10.6 88 88 N N/A 30.59 1036 5 8.0467 N/A
9:46 am 09:46 Cloudy with Mist and Fog 16 -9 12 -11 86 86 SE 3 6 30.59 1036 5 8.0467 N/A
9:53 am 09:53 Cloudy with Mist and Fog 16 -8.9 13 -10.6 88 88 N N/A 30.44 1031 5 8.0467 N/A
10:01 am 10:01 Cloudy with Mist and Fog 16 -8.9 13 -10.6 88 88 SE 3 6 30.59 1036 5 8.0467 N/A
10:28 am 10:28 Cloudy with Mist and Fog 16 -8.9 12 -11.1 84 84 SE 6 9 30.59 1036 2.5 4.02335 N/A
10:36 am 10:36 Cloudy with Mist and Fog 16 -8.9 13 -10.6 88 88 SE 6 9 30.59 1036 4 6.43736 N/A
10:53 am 10:53 Cloudy with Mist and Fog 17 -8.3 13 -10.6 84 84 ESE 6 9 30.45 1031 6 9.65604 N/A
11:53 am 11:53 Cloudy 17 -8.3 12 -11.1 80 80 SE 7 11 30.45 1031 10 16.0934 N/A
12:53 pm 12:53 Cloudy 18 -7.8 14 -10 84 84 ESE 7 11 30.42 1030 10 16.0934 N/A
1:53 pm 13:53 Mostly Cloudy 19 -7.2 14 -10 81 81 SE 8 13 30.4 1029 10 16.0934 N/A
2:53 pm 14:53 Sunny 19 -7.2 13 -10.6 77 77 ESE 10 17 30.39 1029 10 16.0934 N/A
3:53 pm 15:53 Partly Cloudy 19 -7.2 13 -10.6 77 77 ESE 12 19 30.39 1029 10 16.0934 N/A
4:53 pm 16:53 Mostly Cloudy 18 -7.8 13 -10.6 81 81 ESE 12 19 30.37 1029 10 16.0934 N/A
5:53 pm 17:53 Cloudy 18 -7.8 14 -10 84 84 ESE 14 22 30.37 1028 10 16.0934 N/A
6:53 pm 18:53 Mostly Cloudy 18 -7.8 14 -10 84 84 ESE 16 26 30.34 1028 10 16.0934 N/A
7:53 pm 19:53 Clear 17 -8.3 13 -10.6 84 84 ESE 14 22 30.33 1027 10 16.0934 N/A
8:53 pm 20:53 Clear 16 -8.9 13 -10.6 88 88 E 13 20 30.32 1027 10 16.0934 N/A
9:53 pm 21:53 Clear 15 -9.4 12 -11.1 88 88 E 9 15 30.3 1026 10 16.0934 N/A
10:53 pm 22:53 Clear 16 -8.9 13 -10.6 88 88 E 10 17 30.27 1025 10 16.0934 N/A
11:53 pm 23:53 Clear 17 -8.3 14 -10 88 88 E 8 13 30.26 1025 10 16.0934 N/A

Powered by AerisWeather